Andalusia, AL

10:54 AM CDT on July 23, 2017 (GMT -0500)
Andalusia

Weather History for K79J - August, 2013

Change the Weather History Date:

Monday, August 12, 2013

  Actual Average (KCEW) Record (KCEW)
Temperature  
Mean Temperature 83 °F -  
Max Temperature 93 °F 92 °F 97 °F (1990)
Min Temperature 73 °F 68 °F 63 °F (1989)
Cooling Degree Days 18    
Growing Degree Days 33 (Base 50)    
Moisture  
Dew Point 72 °F    
Average Humidity 80    
Maximum Humidity 94    
Minimum Humidity 50    
Precipitation  
Precipitation 1.08 in - - ()
Sea Level Pressure  
Sea Level Pressure 30.09 in    
Wind  
Wind Speed 3 mph (NW)    
Max Wind Speed 29 mph    
Max Gust Speed 38 mph    
Visibility 10 miles    
Events Rain , Thunderstorm    
Averages and records for this station are not official NWS values.
T = Trace of Precipitation, MM = Missing Value Source: NWS Daily Summary

Daily Weather History Graph

Daily Weather History Graph

Search for Another Location

Airport or City:

Trip Planner

Search our weather history database for the weather conditions in past years. The results will help you decide how hot, cold, wet, or windy it might be!

Date:

Astronomy

Aug. 12, 2013 Rise Set
Actual Time 6:09 AM CDT 7:31 PM CDT
Civil Twilight 5:43 AM CDT 7:56 PM CDT
Nautical Twilight 5:12 AM CDT 8:27 PM CDT
Astronomical Twilight 4:41 AM CDT 8:59 PM CDT
Moon 11:32 AM CDT (8/12) 10:51 PM CDT (8/12)
Length of Visible Light 14h 13m
Length of Day
13h 21m
Waxing Crescent, 31% of the Moon is Illuminated
Aug 12
Waxing Crescent
Aug 14
First Quarter
Aug 20
Full
Aug 28
Last Quarter
Sep 5
New

Hourly Weather History & Observations

Time (CDT) Temp. Heat Index Dew Point Humidity Pressure Visibility Wind Dir Wind Speed Gust Speed Precip Events Conditions
12:56 AM 75.0 °F - 72.0 °F 90% 30.14 in 10.0 mi Calm Calm - N/A   Clear
1:56 AM 75.9 °F - 72.0 °F 87% 30.12 in 10.0 mi Calm Calm - N/A   Clear
2:56 AM 75.0 °F - 72.0 °F 90% 30.11 in 10.0 mi Calm Calm - N/A   Clear
3:56 AM 75.0 °F - 72.0 °F 90% 30.11 in 10.0 mi Calm Calm - N/A   Clear
4:56 AM 73.9 °F - 71.1 °F 91% 30.11 in 10.0 mi Calm Calm - N/A   Clear
5:56 AM 73.9 °F - 71.1 °F 91% 30.12 in 10.0 mi Calm Calm - N/A   Clear
6:56 AM 75.0 °F - 72.0 °F 90% 30.12 in 10.0 mi Calm Calm - N/A   Clear
7:56 AM 80.1 °F 85.1 °F 75.0 °F 85% 30.12 in 10.0 mi Calm Calm - N/A   Clear
8:56 AM 84.0 °F 91.9 °F 75.0 °F 74% 30.12 in 10.0 mi West 4.6 mph - N/A   Clear
9:56 AM 88.0 °F 96.5 °F 73.9 °F 63% 30.12 in 10.0 mi NW 8.1 mph - N/A   Partly Cloudy
10:56 AM 89.1 °F 97.0 °F 73.0 °F 59% 30.12 in 10.0 mi NW 6.9 mph - N/A   Partly Cloudy
11:56 AM 90.0 °F 99.0 °F 73.9 °F 59% 30.11 in 10.0 mi North 4.6 mph - N/A   Partly Cloudy
12:56 PM 91.9 °F 99.5 °F 72.0 °F 52% 30.09 in 10.0 mi Calm Calm - N/A   Partly Cloudy
1:56 PM 93.0 °F 100.7 °F 72.0 °F 50% 30.06 in 10.0 mi NW 4.6 mph - N/A   Partly Cloudy
2:56 PM 93.0 °F 100.7 °F 72.0 °F 50% 30.05 in 10.0 mi Variable 4.6 mph - N/A   Partly Cloudy
3:08 PM 82.4 °F 86.3 °F 69.8 °F 66% 30.07 in 10.0 mi North 23.0 mph 31.1 mph N/A Thunderstorm Thunderstorm
3:19 PM 80.6 °F 83.9 °F 69.8 °F 70% 30.10 in 10.0 mi NNW 28.8 mph 38.0 mph N/A Thunderstorm Thunderstorm
3:30 PM 77.0 °F - 71.6 °F 83% 30.14 in 10.0 mi WNW 19.6 mph 36.8 mph 0.22 in Rain , Thunderstorm Heavy Thunderstorms and Rain
3:33 PM 75.2 °F - 71.6 °F 89% 30.14 in 10.0 mi WNW 26.5 mph 38.0 mph 0.46 in Rain , Thunderstorm Heavy Thunderstorms and Rain
3:47 PM 75.2 °F - 71.6 °F 89% 30.12 in 10.0 mi NNE 4.6 mph 24.2 mph 0.98 in Rain , Thunderstorm Heavy Thunderstorms and Rain
3:56 PM 73.9 °F - 70.0 °F 87% 30.09 in 10.0 mi NNE 4.6 mph - 1.03 in Rain , Thunderstorm Heavy Thunderstorms and Rain
4:56 PM 75.0 °F - 71.1 °F 87% 30.06 in 10.0 mi Calm Calm - 0.02 in Rain Light Rain
5:56 PM 75.0 °F - 73.0 °F 94% 30.05 in 10.0 mi Calm Calm - 0.03 in Rain Light Rain
6:56 PM 77.0 °F - 73.0 °F 88% 30.04 in 10.0 mi Calm Calm - 0.00 in   Clear
7:56 PM 75.0 °F - 72.0 °F 90% 30.05 in 10.0 mi West 3.5 mph - N/A   Clear
8:56 PM 75.0 °F - 72.0 °F 90% 30.07 in 10.0 mi Calm Calm - N/A   Clear
9:56 PM 75.9 °F - 73.0 °F 91% 30.06 in 10.0 mi Calm Calm - N/A   Clear
10:56 PM 77.0 °F - 73.0 °F 88% 30.06 in 10.0 mi Calm Calm - N/A   Clear
11:56 PM 75.9 °F - 73.0 °F 91% 30.05 in 10.0 mi Calm Calm - N/A   Clear